| time (UTC) | temp C | wind direction | speed KPH | gust KPH | rain 1hr cm | rain 24hr cm | rain mn cm | humidity % | barometer mb |
| 20260505184037 | 11 | 138 | 0.0 | 4.8 | 0.03 | 0.84 | 0.74 | 83 | 1009.9 |
| 20260505183020 | 11 | 0.0 | 0.0 | 0.00 | 0.81 | 0.71 | 83 | 1010.1 | |
| 20260505182044 | 11 | 113 | 1.6 | 4.8 | 0.00 | 0.81 | 0.71 | 81 | 1010.3 |
| 20260505181028 | 11 | 0.0 | 1.6 | 0.00 | 0.81 | 0.71 | 78 | 1010.3 | |
| 20260505180033 | 12 | 150 | 1.6 | 4.8 | 0.00 | 0.81 | 0.71 | 79 | 1010.3 |
| 20260505175019 | 12 | 0.0 | 0.0 | 0.00 | 0.81 | 0.71 | 79 | 1010.1 | |
| 20260505174023 | 12 | 158 | 0.0 | 3.2 | 0.00 | 0.84 | 0.71 | 79 | 1010.0 |
| 20260505173027 | 11 | 0.0 | 0.0 | 0.00 | 0.84 | 0.71 | 79 | 1010.0 | |
| 20260505172031 | 11 | 191 | 1.6 | 6.4 | 0.00 | 0.86 | 0.71 | 79 | 1009.7 |
| 20260505171017 | 12 | 194 | 4.8 | 6.4 | 0.00 | 0.89 | 0.71 | 76 | 1009.7 |
| 20260505170021 | 12 | 230 | 1.6 | 8.0 | 0.00 | 0.89 | 0.71 | 73 | 1009.5 |
| 20260505165046 | 12 | 155 | 1.6 | 6.4 | 0.00 | 0.89 | 0.71 | 74 | 1009.4 |
| 20260505164030 | 12 | 177 | 1.6 | 6.4 | 0.00 | 0.89 | 0.71 | 74 | 1009.3 |
| 20260505163016 | 12 | 0.0 | 3.2 | 0.00 | 0.89 | 0.71 | 74 | 1009.2 | |
| 20260505162020 | 12 | 198 | 4.8 | 8.0 | 0.00 | 0.89 | 0.71 | 73 | 1009.0 |
| 20260505161044 | 13 | 188 | 6.4 | 8.0 | 0.00 | 0.89 | 0.71 | 72 | 1008.9 |
| 20260505153016 | 12 | 159 | 3.2 | 8.0 | 0.00 | 0.91 | 0.71 | 77 | 1009.0 |
| 20260505152026 | 12 | 179 | 4.8 | 9.7 | 0.00 | 0.91 | 0.71 | 78 | 1009.2 |
| 20260505151051 | 12 | 152 | 8.0 | 9.7 | 0.00 | 0.91 | 0.71 | 76 | 1008.8 |
| 20260505125016 | 10 | 190 | 3.2 | 8.0 | 0.36 | 0.91 | 0.66 | 91 | 1008.5 |
| 20260505124040 | 10 | 180 | 3.2 | 8.0 | 0.30 | 0.86 | 0.61 | 91 | 1008.9 |
| 20260505123024 | 10 | 90 | 0.0 | 3.2 | 0.15 | 0.71 | 0.46 | 89 | 1009.4 |
| 20260505122028 | 10 | 127 | 4.8 | 8.0 | 0.03 | 0.56 | 0.30 | 88 | 1009.0 |
| 20260505121032 | 11 | 201 | 4.8 | 9.7 | 0.03 | 0.56 | 0.30 | 89 | 1008.2 |
| 20260505120018 | 11 | 0.0 | 0.0 | 0.05 | 0.56 | 0.30 | 89 | 1007.5 | |
| 20260505115023 | 11 | 162 | 1.6 | 4.8 | 0.05 | 0.56 | 0.30 | 88 | 1007.1 |
| 20260505114047 | 11 | 175 | 6.4 | 8.0 | 0.05 | 0.56 | 0.30 | 89 | 1007.1 |
| 20260505113031 | 11 | 0.0 | 0.0 | 0.05 | 0.56 | 0.30 | 90 | 1007.3 | |
| 20260505112017 | 12 | 171 | 1.6 | 6.4 | 0.03 | 0.53 | 0.28 | 90 | 1007.1 |
| 20260505111021 | 12 | 202 | 1.6 | 9.7 | 0.03 | 0.53 | 0.28 | 92 | 1007.3 |
| 20260505102038 | 12 | 201 | 4.8 | 8.0 | 0.23 | 0.51 | 0.25 | 87 | 1006.8 |
| 20260505101016 | 13 | 248 | 1.6 | 8.0 | 0.23 | 0.51 | 0.25 | 88 | 1006.6 |
| 20260505100052 | 14 | 34 | 3.2 | 8.0 | 0.20 | 0.48 | 0.23 | 93 | 1007.0 |
| 20260505095018 | 15 | 149 | 1.6 | 8.0 | 0.08 | 0.36 | 0.10 | 93 | 1006.1 |
| 20260505094022 | 15 | 0.0 | 0.0 | 0.08 | 0.36 | 0.10 | 93 | 1006.1 | |
| 20260505093026 | 15 | 118 | 1.6 | 4.8 | 0.03 | 0.30 | 0.05 | 92 | 1006.3 |
| 20260505092030 | 15 | 0.0 | 0.0 | 0.00 | 0.28 | 0.03 | 91 | 1005.5 | |
| 20260505091017 | 15 | 0.0 | 0.0 | 0.00 | 0.28 | 0.03 | 90 | 1005.2 | |
| 20260505090041 | 15 | 0.0 | 0.0 | 0.00 | 0.28 | 0.03 | 90 | 1005.0 | |
| 20260505085025 | 15 | 0.0 | 0.0 | 0.00 | 0.28 | 0.03 | 90 | 1005.0 | |
| 20260505084029 | 15 | 322 | 3.2 | 4.8 | 0.00 | 0.28 | 0.03 | 90 | 1005.0 |
| 20260505083015 | 15 | 0.0 | 0.0 | 0.00 | 0.28 | 0.03 | 90 | 1004.9 | |
| 20260505082039 | 15 | 9 | 3.2 | 4.8 | 0.00 | 0.28 | 0.03 | 90 | 1004.6 |
| 20260505081023 | 15 | 0.0 | 0.0 | 0.00 | 0.28 | 0.03 | 90 | 1004.5 | |
| 20260505080027 | 15 | 0.0 | 0.0 | 0.03 | 0.28 | 0.03 | 89 | 1004.3 | |
| 20260505075032 | 15 | 0.0 | 0.0 | 0.03 | 0.28 | 0.03 | 89 | 1004.7 | |
| 20260505074018 | 15 | 0.0 | 0.0 | 0.03 | 0.28 | 0.03 | 88 | 1004.9 | |
| 20260505073022 | 16 | 0.0 | 0.0 | 0.03 | 0.28 | 0.03 | 87 | 1005.2 | |
| 20260505072027 | 16 | 0.0 | 0.0 | 0.03 | 0.28 | 0.03 | 85 | 1005.3 | |
| 20260505071030 | 16 | 0.0 | 0.0 | 0.03 | 0.28 | 0.03 | 83 | 1005.8 | |
| 20260505070036 | 17 | 0.0 | 0.0 | 0.00 | 0.25 | 0.00 | 83 | 1006.1 | |
| 20260505065021 | 17 | 145 | 3.2 | 8.0 | 0.00 | 0.25 | 0.00 | 82 | 1006.0 |
| 20260505064024 | 18 | 179 | 12.9 | 22.5 | 0.00 | 0.25 | 0.00 | 71 | 1005.2 |
| 20260505063029 | 21 | 91 | 9.7 | 27.4 | 0.00 | 0.25 | 0.00 | 64 | 1004.0 |
| 20260505062015 | 21 | 59 | 8.0 | 11.3 | 0.00 | 0.25 | 0.00 | 64 | 1003.6 |
| 20260505061019 | 21 | 26 | 6.4 | 9.7 | 0.00 | 0.25 | 0.00 | 64 | 1003.2 |
| 20260505060023 | 21 | 10 | 8.0 | 11.3 | 0.00 | 0.25 | 0.00 | 64 | 1003.1 |
| 20260505055027 | 21 | 2 | 8.0 | 11.3 | 0.00 | 0.25 | 0.00 | 64 | 1002.8 |
| 20260505054025 | 21 | 355 | 8.0 | 11.3 | 0.00 | 0.25 | 0.00 | 64 | 1002.8 |
| 20260505053018 | 21 | 357 | 6.4 | 11.3 | 0.00 | 0.25 | 0.00 | 63 | 1002.8 |
| 20260505052022 | 21 | 344 | 8.0 | 11.3 | 0.00 | 0.25 | 0.00 | 63 | 1002.9 |
| 20260505051020 | 21 | 359 | 9.7 | 12.9 | 0.00 | 0.25 | 0.00 | 63 | 1002.8 |
| 20260505041032 | 21 | 355 | 8.0 | 11.3 | 0.00 | 0.25 | 0.25 | 63 | 1002.3 |
| 20260505040039 | 21 | 328 | 8.0 | 12.9 | 0.00 | 0.25 | 0.25 | 63 | 1002.4 |
| 20260505035043 | 22 | 5 | 6.4 | 9.7 | 0.00 | 0.25 | 0.25 | 63 | 1002.5 |
| 20260505034027 | 22 | 344 | 8.0 | 11.3 | 0.00 | 0.25 | 0.25 | 63 | 1002.6 |
| 20260505033051 | 22 | 13 | 6.4 | 11.3 | 0.00 | 0.25 | 0.25 | 63 | 1002.6 |
| 20260505032017 | 22 | 345 | 6.4 | 9.7 | 0.00 | 0.25 | 0.25 | 62 | 1002.6 |
| 20260505031021 | 22 | 333 | 6.4 | 8.0 | 0.00 | 0.25 | 0.25 | 61 | 1002.6 |
| 20260505030025 | 22 | 349 | 6.4 | 8.0 | 0.00 | 0.25 | 0.25 | 61 | 1002.5 |
| 20260505025029 | 22 | 360 | 8.0 | 11.3 | 0.00 | 0.25 | 0.25 | 60 | 1002.3 |
| 20260505024036 | 23 | 320 | 9.7 | 12.9 | 0.00 | 0.25 | 0.25 | 59 | 1002.1 |
| 20260505023020 | 23 | 317 | 8.0 | 12.9 | 0.00 | 0.25 | 0.25 | 59 | 1001.9 |
| 20260505022024 | 23 | 10 | 8.0 | 14.5 | 0.00 | 0.25 | 0.25 | 58 | 1001.7 |
| 20260505021028 | 23 | 355 | 8.0 | 11.3 | 0.00 | 0.25 | 0.25 | 57 | 1001.4 |
| 20260505020032 | 23 | 346 | 8.0 | 9.7 | 0.00 | 0.25 | 0.25 | 57 | 1001.4 |
| 20260505015018 | 23 | 3 | 8.0 | 9.7 | 0.00 | 0.25 | 0.25 | 57 | 1001.3 |
| 20260505014022 | 23 | 359 | 8.0 | 11.3 | 0.00 | 0.25 | 0.25 | 57 | 1001.2 |
| 20260505013107 | 23 | 16 | 6.4 | 9.7 | 0.00 | 0.25 | 0.25 | 58 | 1001.2 |
| 20260505012031 | 23 | 344 | 8.0 | 9.7 | 0.00 | 0.25 | 0.25 | 58 | 1001.1 |
| 20260505011017 | 23 | 330 | 8.0 | 9.7 | 0.00 | 0.25 | 0.25 | 58 | 1001.1 |
| 20260505010021 | 23 | 339 | 9.7 | 11.3 | 0.00 | 0.25 | 0.25 | 58 | 1000.9 |
| 20260505005025 | 23 | 25 | 6.4 | 9.7 | 0.00 | 0.25 | 0.25 | 61 | 1000.8 |
| 20260505004029 | 23 | 344 | 6.4 | 8.0 | 0.00 | 0.25 | 0.25 | 65 | 1000.8 |
| 20260505003015 | 23 | 336 | 4.8 | 6.4 | 0.00 | 0.25 | 0.25 | 67 | 1000.8 |
| 20260505002019 | 23 | 323 | 4.8 | 6.4 | 0.00 | 0.25 | 0.25 | 67 | 1000.8 |
| 20260505001023 | 23 | 334 | 4.8 | 6.4 | 0.00 | 0.25 | 0.25 | 67 | 1000.9 |
| 20260505000022 | 22 | 329 | 4.8 | 6.4 | 0.00 | 0.25 | 0.25 | 67 | 1000.9 |
| 20260504235020 | 22 | 0.0 | 0.0 | 0.00 | 0.25 | 0.25 | 74 | 1000.9 | |
| 20260504234018 | 22 | 0.0 | 0.0 | 0.00 | 0.25 | 0.25 | 73 | 1001.1 | |
| 20260504233036 | 22 | 0.0 | 0.0 | 0.00 | 0.25 | 0.25 | 70 | 1001.3 | |
| 20260504232046 | 22 | 180 | 0.0 | 1.6 | 0.00 | 0.25 | 0.25 | 70 | 1000.6 |
| 20260504231030 | 23 | 331 | 6.4 | 9.7 | 0.00 | 0.25 | 0.25 | 63 | 1000.9 |
| 20260504230016 | 23 | 340 | 9.7 | 11.3 | 0.00 | 0.25 | 0.25 | 60 | 1001.4 |
| 20260504225021 | 23 | 357 | 8.0 | 11.3 | 0.00 | 0.25 | 0.25 | 59 | 1001.7 |
| 20260504224025 | 24 | 327 | 8.0 | 9.7 | 0.00 | 0.25 | 0.25 | 58 | 1001.9 |
| 20260504223028 | 25 | 335 | 8.0 | 12.9 | 0.00 | 0.25 | 0.25 | 58 | 1002.1 |
| 20260504222153 | 24 | 341 | 6.4 | 8.0 | 0.00 | 0.25 | 0.25 | 57 | 1002.2 |
| 20260504221019 | 25 | 343 | 9.7 | 12.9 | 0.00 | 0.25 | 0.25 | 56 | 1002.2 |
| 20260504220023 | 25 | 3 | 8.0 | 12.9 | 0.00 | 0.25 | 0.25 | 56 | 1002.0 |
| 20260504215047 | 25 | 349 | 8.0 | 11.3 | 0.08 | 0.25 | 0.25 | 56 | 1001.9 |
| 20260504214051 | 26 | 332 | 11.3 | 14.5 | 0.08 | 0.25 | 0.25 | 54 | 1001.9 |
| 20260504213017 | 25 | 344 | 11.3 | 14.5 | 0.08 | 0.25 | 0.25 | 54 | 1002.1 |
| 20260504212021 | 25 | 333 | 12.9 | 17.7 | 0.08 | 0.25 | 0.25 | 55 | 1002.2 |
| 20260504211025 | 25 | 336 | 12.9 | 19.3 | 0.08 | 0.25 | 0.25 | 55 | 1002.3 |
| 20260504210050 | 25 | 330 | 14.5 | 20.9 | 0.08 | 0.25 | 0.25 | 56 | 1002.4 |
| 20260504205016 | 26 | 349 | 12.9 | 16.1 | 0.03 | 0.18 | 0.18 | 57 | 1002.6 |
| 20260504204020 | 25 | 341 | 11.3 | 14.5 | 0.03 | 0.18 | 0.18 | 59 | 1002.8 |
| 20260504203024 | 23 | 338 | 9.7 | 12.9 | 0.03 | 0.18 | 0.18 | 63 | 1003.0 |
| 20260504202049 | 24 | 343 | 11.3 | 14.5 | 0.03 | 0.18 | 0.18 | 61 | 1003.0 |
| 20260504201032 | 25 | 347 | 9.7 | 14.5 | 0.03 | 0.18 | 0.18 | 59 | 1003.1 |
| 20260504200018 | 25 | 342 | 12.9 | 14.5 | 0.03 | 0.18 | 0.18 | 58 | 1003.3 |
| 20260504195023 | 24 | 334 | 6.4 | 9.7 | 0.00 | 0.15 | 0.15 | 60 | 1003.3 |
| 20260504194047 | 22 | 26 | 1.6 | 6.4 | 0.00 | 0.15 | 0.15 | 67 | 1003.1 |
| 20260504193031 | 20 | 293 | 1.6 | 4.8 | 0.00 | 0.15 | 0.15 | 73 | 1002.7 |
| 20260504192017 | 20 | 0.0 | 0.0 | 0.00 | 0.15 | 0.15 | 74 | 1002.9 | |
| 20260504191021 | 20 | 149 | 1.6 | 6.4 | 0.00 | 0.15 | 0.15 | 73 | 1003.9 |
| 20260504190026 | 20 | 341 | 3.2 | 6.4 | 0.00 | 0.15 | 0.15 | 71 | 1004.3 |
| 20260504185024 | 20 | 319 | 4.8 | 8.0 | 0.00 | 0.15 | 0.15 | 70 | 1004.5 |